Home   Weather   Monterrey   Past weeks

Flag for Mexico Past Weather in Monterrey, Nuevo León, Mexico — Yesterday and Last 2 Weeks

Now
64 °F

Partly cloudy.


Feels Like: 64 °F
Forecast: 60 / 73 °F
Wind: 9 mph from North

Location: Aerop. Internacional Monterrey - N. L.

Current Time: Jan 18, 2017 at 12:08:13 am

Latest Report: Jan 17, 2017 at 11:40 pm


Visibility: 5 mi

Pressure: 30.04 "Hg (28.18 "Hg at 545m altitude)

Humidity: 68%

Dew Point: 54 °F

Location of MonterreyLocation

Past Weather in Monterrey — Graph

°F

Monterrey Temperature Yesterday

Maximum temperature yesterday: 68 °F (at 2:52 pm)
Minimum temperature yesterday: 64 °F (at 6:41 am)
Average temperature yesterday: 66 °F

High & Low Weather Summary for the Past Weeks

 TemperatureHumidityPressure
High82 °F (Jan 3, 1:40 pm)100% (Jan 4, 1:40 pm)30.73 "Hg (Jan 4, 1:40 pm)
Low32 °F (Jan 7, 9:40 am)19% (Jan 10, 11:40 am)29.77 "Hg (Jan 5, 3:40 pm)
Average61 °F62%30.13 "Hg
* Reported Jan 2 10:44 pm — Jan 17 10:40 pm, Monterrey, Weather by CustomWeather, © 2017

Note: Actual official high and low records may vary slightly from our data, if they occured in-between our weather recording intervals... More about our weather records

Advertising

Monterrey Weather History for the Previous 24 Hours

Scroll right to see more
 ConditionsComfort  
Time TempWeatherWind HumidityBarometerVisibility
10:40 pm
Tue, Jan 17
64 °FMostly cloudy.7 mph68%30.03 "Hg5 mi
9:40 pm64 °FMostly cloudy.5 mph64%30.03 "Hg7 mi
8:40 pm64 °FPassing clouds.2 mph64%30.02 "Hg7 mi
7:40 pm66 °FPassing clouds.7 mph64%30.00 "Hg6 mi
6:41 pm68 °FOvercast.8 mph60%29.98 "Hg7 mi
5:41 pm68 °FOvercast.10 mph64%29.97 "Hg7 mi
4:40 pm68 °FBroken clouds.7 mph69%29.95 "Hg6 mi
3:44 pm68 °FMostly cloudy.7 mph64%29.94 "Hg5 mi
2:52 pm68 °FMostly cloudy.5 mph64%29.93 "Hg4 mi
2:41 pm66 °FMostly cloudy.7 mph68%29.94 "Hg6 mi
1:40 pm66 °FMostly cloudy.6 mph73%29.95 "Hg6 mi
12:40 pm66 °FMostly cloudy.5 mph78%29.99 "Hg5 mi
11:40 am66 °FMostly cloudy.6 mph83%30.01 "Hg5 mi
10:40 am64 °FMostly cloudy.5 mph88%30.02 "Hg5 mi
9:40 am64 °FMostly cloudy.3 mph83%30.01 "Hg6 mi
8:40 am64 °FMostly cloudy.2 mph83%29.99 "Hg5 mi
7:40 am64 °FMostly cloudy.2 mph78%29.98 "Hg6 mi
6:41 am64 °FMostly cloudy.3 mph83%29.98 "Hg6 mi
Weather by CustomWeather, © 2017

See weather overviewHow to use our weather pages